Погода в Иштане

Россия / Томская область     57°09′28″N   84°07′49″E
темп.,
°C
ветер,
м/с
пор.,
м/с
влажн.,
%
обл.,
%
осадки,
мм/ч
давл.,
гПа
погр.,
м
13 апреля, вт
вт1301:00+2сз3119499 0.1 1025416
04:00+1сз499357 0.0 1025441
07:000сз488352 0.0 1028625
10:00+2зсз478797 0.0 1029645
13:00+3сз478043 0.0 10291032
16:00+6зсз5865100 0.1 10281357
19:00+4зсз4975100 0.5 1028636
22:00+2з388484 0.1 1028224
14 апреля, ср
ср1401:000з41190100 0.1 1028286
04:00+1з41191100 0.0 1027413
07:00+1зюз3898100 0.0 1027325
10:00+1юз41098100 0.4 1024347
13:00+2зюз61597100 3.8 1021790
16:00+5з61287100 0.7 10191004
19:00+4зсз51190100 0.8 1020789
22:00+3зсз41093100 0.1 1022740
15 апреля, чт
чт1501:00+3сз3897100 0.2 1023697
04:00+2зсз2598100 0.1 1024334
07:00+2з1297100 0.2 102595
10:00+3юз2490100 0.0 1025277
13:00+5юз3687100 0.0 1023525
16:00+7юз5980100 0.0 1021782
19:00+7юз5118486 0.0 1019597
22:00+6ююз5129298 0.0 1017446
16 апреля, пт
пт1601:00+5юз5139439 0.0 1015386
04:00+5юз5139576 0.0 1013352
07:00+5юз5139423 0.0 1012381
10:00+9зюз58799 0.0 1012530
13:00+14зюз596484 0.0 10101246
16:00+3с61089100 0.4 1012472
19:00+2с3996100 1.3 1014460
22:00+1ссв4996100 0.3 1016541
17 апреля, сб
сб1701:000ссв4774100 0.4 1017706
04:00−2св5880100 0.0 1017635
07:00−4св5970100 0.0 1017624
10:00−3св6859100 0.0 1017840
13:00−2св6865100 0.1 10151051
16:00−1всв6968100 0.2 10141122
19:00−2св61084100 0.4 1014934
22:00−4св61290100 0.9 1014853